sat.trackr.live / text

‹ back to catalog

STRELA 3

NORAD 37153 · 2010-043B

PAYLOAD ACTIVE UNKNOWN

§ Identity

Operator
Country
CIS
Launch date
2010-09-08
Launch site
PLMSC
Launch vehicle
Mass (kg)
RCS (m²)
0.91

External: N2YO · Heavens-Above · Gunter

§ Orbital elements

Epoch: 2026-09-15T22:34:58.163808Z

Period
116.05 min
Inclination
82.4620°
Eccentricity
0.0006837
Mean motion
12.40793734 rev/d
Perigee alt
1,497.9 km
Apogee alt
1,508.6 km
Semi-major
7,881.4 km
B*
-2.4181e-4
RAAN
21.8681°
Arg perigee
242.2144°
Mean anomaly
117.8241°
Rev number
72,562

§ Raw data

STRELA 31 37153U 10043B   26258.94095097 -.00000023  00000+0 -24181-3 0  99982 37153  82.4620  21.8681 0006837 242.2144 117.8241 12.40793734725628

JSON: /api/v1/satellites/37153 · /tle

For live sub-satellite position, see the globe view (requires WebGL).

§ Visibility from observer

Set your observer location to see the next 7 days of passes ≥ 10°. The values pass through the URL so the page stays shareable.

No JS? Fill the form by hand. The geolocation button needs JavaScript.